Location: Unspecified
(40.7945°N, 111.1337°W)
Time: 17:10:47
(UTC-06:00)

CZ-3 Stage 3 - Visible Passes

Search period start: 20 August 2017 00:00
Search period end: 30 August 2017 00:00
Orbit: 429 x 34770 km, 31.0° (Epoch: 20 August)

Date Brightness Start Highest point End Pass type
(mag) Time Alt. Az. Time Alt. Az. Time Alt. Az.
21 Aug 9.6 18:16:30 10° W 19:16:07 29° WSW 22:15:27 10° WSW visible
22 Aug 7.3 14:28:05 10° W 14:57:37 62° SSW 22:19:56 10° SSW visible
24 Aug 9.6 18:07:41 10° W 19:06:15 29° WSW 22:00:21 10° WSW visible
25 Aug 7.3 14:18:57 10° W 14:48:12 61° SSW 22:06:24 10° SSW visible
27 Aug 9.5 17:58:53 10° W 18:56:26 28° WSW 21:45:11 10° WSW visible
28 Aug 7.3 14:09:50 10° W 14:38:46 60° SSW 21:52:46 10° SSW visible
